Date,TemperatureHighF,TemperatureAvgF,TemperatureLowF,DewpointHighF,DewpointAvgF,DewpointLowF,HumidityHigh,HumidityAvg,HumidityLow,PressureMaxIn,PressureMinIn,WindSpeedMaxMPH,WindSpeedAvgMPH,GustSpeedMaxMPH,PrecipitationSumIn
2013-1-1,28,21,9,20,4,-11,73,48,37,30.07,29.80,11,4,23,0.08
2013-1-2,20,11,1,1,-10,-19,55,39,36,30.25,30.04,14,4,25,0.94
2013-1-3,17,8,1,-3,-12,-19,44,38,37,30.29,30.14,7,2,13,0.87
2013-1-4,32,23,10,17,5,-10,58,46,39,30.14,29.92,11,2,22,0.00
2013-1-5,31,27,19,20,9,2,67,47,36,30.42,29.91,14,3,21,0.00
2013-1-6,30,25,18,22,14,4,80,62,52,30.39,30.10,7,1,14,0.00
2013-1-7,31,26,16,27,13,1,85,59,40,30.55,30.10,8,1,17,0.00
2013-1-8,36,26,15,14,10,1,61,51,40,30.53,30.39,16,3,31,0.00
2013-1-9,36,30,25,22,17,13,67,56,48,30.60,30.10,16,2,29,0.24
2013-1-10,40,34,27,29,17,14,84,51,39,30.71,30.11,21,4,35,0.00
2013-1-11,35,30,24,28,17,12,81,58,41,30.71,30.39,14,1,17,0.08
2013-1-12,38,36,33,37,33,28,97,89,81,30.40,30.26,7,1,15,0.08
2013-1-13,40,37,35,39,36,34,97,96,94,30.33,30.10,7,1,15,0.00
2013-1-14,50,41,33,49,33,19,97,76,40,30.39,30.01,9,2,17,0.00
2013-1-15,36,32,29,21,15,10,62,50,40,30.49,30.37,7,1,13,0.16
2013-1-16,30,28,26,23,19,11,81,70,49,30.43,29.95,4,0,7,0.51
2013-1-17,35,26,16,24,14,-5,86,61,37,30.30,29.95,8,2,13,0.55
2013-1-18,17,12,6,-2,-10,-15,43,36,34,30.59,30.23,10,2,18,0.39
2013-1-19,32,24,10,18,7,-12,58,47,35,30.52,30.00,7,1,12,0.00
2013-1-20,43,32,22,23,14,-2,66,48,31,30.00,29.62,18,4,32,0.16
2013-1-21,20,18,16,8,6,4,64,58,57,30.08,29.97,0,0,12,0.16
2013-1-22,20,14,5,8,-1,-11,67,51,34,30.21,29.92,22,2,38,0.79
2013-1-23,6,0,-4,-9,-15,-19,48,48,48,30.32,30.21,10,3,17,0.47
2013-1-24,9,2,-5,-7,-13,-20,48,48,48,30.36,30.21,12,4,20,0.91
2013-1-25,14,8,2,-2,-10,-14,48,43,35,30.45,30.24,12,3,18,1.14
2013-1-26,20,12,8,-4,-11,-15,40,34,31,30.36,30.17,10,2,12,0.28
2013-1-27,22,14,9,-3,-10,-14,36,34,31,30.61,30.32,10,3,17,0.08
2013-1-28,22,17,12,11,-1,-12,70,47,33,30.60,30.25,6,1,12,0.04
2013-1-29,32,25,15,27,15,4,84,66,51,30.39,30.25,8,0,10,0.00
2013-1-30,50,38,31,49,36,27,97,93,84,30.31,29.60,7,1,15,0.24
2013-1-31,55,43,24,54,35,3,97,78,35,29.61,29.00,14,6,25,0.59